RH
37 44 45 47 50 46 42 44 47 47 49 53 54 56 54 51 45 28 39 57 47 49 51 40 40 34 27 25 20 20 19 20 22 20 20 18 19 20 19 20 19 20 19 17 17 18 22 25 26 28 30 32 34 34 35 36 38 41 39 38 41 42 41 40 38 36 34 33 32 30 28 25 24 24 25 26 28 30 29 28 31 33 36 36 32 36
36 45 50 45 39 38 40 44 48 51 52 54 57 57 50 47 42 33 47 55 44 50 50 36 36 33 28 27 23 22 22 21 20 20 21 17 17 20 21 22 20 19 19 21 28 29 28 30 30 31 33 35 36 37 37 37 37 40 40 37 39 42 43 41 39 36 35 36 35 34 33 30 26 24 24 24 26 29 31 31 32 34 38 36 32 35
42 52 51 39 35 41 46 48 51 54 57 58 55 54 52 45 39 41 53 50 43 55 51 38 41 39 33 32 29 27 23 21 20 20 23 22 21 21 21 23 23 21 18 20 29 34 34 34 34 35 37 37 37 38 39 39 38 39 40 38 38 40 42 42 40 38 37 37 38 38 37 34 29 25 23 23 24 26 29 32 34 35 38 36 35 37
44 52 47 42 43 46 48 49 51 53 56 58 54 50 49 46 45 48 49 45 45 52 48 45 52 49 43 38 29 26 24 21 22 23 24 28 28 26 27 29 29 26 23 21 22 25 32 38 38 37 39 39 39 39 40 40 40 40 41 40 38 39 40 41 41 39 37 37 38 38 36 31 28 25 23 22 22 23 25 31 34 36 38 37 37 38
48 46 42 49 50 45 47 47 49 53 50 48 52 51 47 47 50 48 45 45 42 45 53 54 49 42 36 31 21 22 27 23 23 25 24 26 28 29 31 32 32 30 30 29 25 23 29 37 39 38 39 40 40 40 40 40 41 40 41 41 40 39 38 39 40 39 37 36 36 38 37 32 28 27 25 23 22 22 24 27 31 33 35 37 38 38
49 44 44 54 49 42 50 50 45 50 48 43 50 55 48 45 51 49 48 52 45 44 56 54 46 38 26 21 20 22 25 22 24 27 24 22 25 31 32 29 28 27 28 30 28 28 29 30 32 36 38 39 40 39 38 39 40 40 41 41 42 40 39 39 39 38 37 37 36 38 40 40 38 36 34 31 28 26 24 24 28 30 32 37 41 40
47 46 49 53 46 44 52 51 44 46 48 46 49 54 50 47 55 55 52 58 52 42 44 45 48 48 34 23 23 24 21 18 21 21 17 17 21 28 27 24 23 24 25 28 28 28 28 27 28 31 35 37 38 36 36 39 40 41 41 41 43 42 41 41 39 38 38 39 39 40 42 44 45 45 43 39 36 32 26 23 26 29 32 38 41 39
51 49 48 49 46 48 49 46 44 43 43 47 53 56 53 52 56 55 56 61 57 48 44 42 45 53 51 36 26 26 22 18 22 19 17 19 20 23 23 22 23 24 27 29 29 28 28 30 29 28 29 32 34 34 36 39 40 41 42 41 43 43 44 43 41 39 40 42 43 44 45 45 46 45 40 36 32 29 26 24 25 26 30 35 37 36
54 50 47 49 45 46 46 42 44 43 41 50 60 60 55 56 56 54 60 63 56 55 56 48 47 57 57 36 23 27 25 24 29 25 22 25 23 23 24 24 24 24 27 28 27 28 29 29 26 25 26 28 31 33 35 38 39 41 42 42 43 44 45 45 43 41 42 45 46 46 46 45 44 41 37 34 28 24 23 23 24 25 28 31 32 33
54 50 50 51 44 45 47 42 44 46 47 55 62 61 59 62 61 58 62 60 54 59 61 51 48 54 52 31 19 27 27 28 33 28 27 29 26 26 27 29 28 26 28 30 28 29 28 25 23 23 25 26 29 32 35 37 39 41 43 44 44 44 46 47 46 44 44 46 47 47 46 43 42 40 38 36 30 24 23 24 25 26 26 26 27 30
57 53 53 56 52 50 48 44 47 50 51 57 59 56 55 57 62 62 57 53 54 59 56 49 43 44 48 33 20 25 28 30 34 32 32 31 28 30 30 33 34 31 32 34 33 32 28 24 23 24 25 26 29 33 36 38 40 42 44 45 45 45 46 48 48 46 46 48 48 47 46 44 43 43 41 38 33 30 29 30 29 27 25 24 25 27
62 54 50 58 56 51 50 49 53 59 59 60 58 53 49 46 48 52 49 47 54 55 48 43 40 42 48 37 24 26 30 34 39 36 34 32 28 29 30 32 35 36 37 36 32 30 27 27 28 27 26 27 29 33 37 40 41 44 45 46 47 47 47 48 48 48 47 49 49 48 47 46 46 45 43 39 37 34 33 33 31 28 27 26 26 28
51 55 55 60 55 48 48 46 51 60 58 53 49 50 54 48 43 46 46 43 44 43 39 37 37 40 40 32 25 26 27 32 36 33 32 31 27 27 30 32 37 40 39 31 27 26 26 29 33 30 27 27 29 33 37 41 43 45 47 49 50 49 49 49 49 49 49 50 50 50 49 48 47 47 45 42 40 37 35 33 31 29 29 28 28 30
40 54 53 53 55 53 46 39 41 47 46 44 44 50 57 54 56 59 49 42 42 39 35 35 37 40 38 29 24 23 23 28 34 33 31 28 26 29 33 36 37 36 31 26 25 26 26 28 31 31 28 27 30 33 37 41 45 46 49 50 52 52 51 50 50 49 50 51 51 51 51 49 48 48 48 47 44 41 38 34 32 31 30 29 28 30
36 42 40 41 46 49 48 45 45 46 48 46 40 45 51 50 60 65 53 48 52 46 39 37 38 40 40 32 24 22 23 27 32 31 26 23 23 27 32 33 31 27 25 25 26 26 26 27 28 29 28 27 29 32 34 37 42 46 49 51 53 54 53 52 51 50 50 52 52 52 51 51 50 48 48 47 44 42 39 35 32 31 31 30 30 30
32 30 36 44 43 40 45 51 50 48 48 42 35 42 50 48 50 56 54 49 53 56 52 47 42 35 31 25 20 23 21 19 24 23 19 20 21 24 29 28 26 25 26 27 27 27 27 27 27 28 28 27 29 31 31 32 37 43 47 50 53 55 55 54 52 51 51 52 52 52 52 51 50 48 47 45 43 42 41 37 33 31 31 31 31 31
34 30 30 40 47 45 46 51 52 50 46 40 41 47 49 47 46 54 58 46 46 60 54 40 39 36 31 27 22 24 19 14 18 19 17 20 20 22 27 26 25 26 27 27 29 29 29 28 27 27 28 29 30 31 32 33 35 39 43 48 53 55 57 56 54 52 51 52 53 52 52 52 50 49 47 46 45 44 42 39 36 33 32 33 33 32
38 40 30 31 46 53 52 53 54 55 52 42 44 51 50 49 46 48 56 51 51 60 45 32 42 45 42 40 30 24 21 16 17 17 16 19 20 21 24 24 25 27 28 29 29 30 31 30 29 29 29 30 32 32 34 35 38 41 43 46 51 55 57 57 55 53 51 52 53 52 52 52 51 50 49 47 46 45 43 40 37 35 35 34 33 33
41 48 39 30 39 52 57 54 51 55 57 51 49 51 50 54 55 48 50 55 60 63 49 41 48 45 41 41 35 25 21 18 15 15 17 19 20 22 23 26 28 28 29 31 31 33 34 33 31 31 31 32 33 34 35 38 41 44 45 46 50 54 57 58 57 54 52 52 53 52 52 52 51 51 50 48 47 45 43 41 39 39 38 35 33 34
42 46 44 36 33 42 46 42 40 46 54 57 56 51 46 50 54 48 46 52 60 65 60 55 52 44 35 32 28 23 18 16 16 16 19 21 22 24 26 28 29 30 32 34 34 35 36 35 32 31 33 33 34 36 37 39 42 44 47 48 50 53 56 59 59 55 52 52 53 53 52 52 51 51 50 50 48 46 44 44 43 42 40 35 34 36
42 40 43 39 31 32 36 36 33 33 40 48 48 46 46 44 44 47 48 49 56 62 62 62 57 42 28 23 21 20 17 16 17 18 21 23 24 25 27 29 29 31 35 35 34 35 36 36 33 31 32 33 34 37 38 40 41 43 47 50 51 54 57 59 60 56 53 52 53 54 53 53 52 51 51 50 50 49 47 45 45 44 40 36 35 38
43 40 44 44 38 32 34 38 36 30 33 38 37 37 40 42 46 56 58 50 51 55 54 60 63 45 26 21 20 18 16 15 16 19 22 24 24 26 28 28 29 33 36 35 34 36 36 36 34 32 33 33 36 39 40 41 43 44 48 51 53 55 57 59 61 59 56 54 54 54 54 54 53 52 51 51 50 50 49 47 46 44 39 36 37 38
43 43 50 51 44 37 38 42 41 40 41 42 43 39 36 41 43 50 60 56 51 53 50 61 71 51 26 20 20 17 16 16 16 19 24 25 24 27 29 27 29 33 35 36 35 35 36 35 33 33 34 35 38 40 41 43 45 46 48 51 54 56 57 58 60 61 59 56 55 55 55 56 55 53 53 52 51 51 50 48 46 44 39 36 37 39
46 43 51 50 37 34 40 41 40 47 52 48 42 36 39 50 49 45 52 56 58 59 54 62 70 49 23 19 20 17 17 17 16 19 24 26 25 28 30 28 30 33 34 35 35 35 35 34 34 35 36 38 40 41 43 45 46 47 48 50 54 56 57 58 60 62 61 58 57 56 56 57 56 55 55 54 53 53 51 49 47 44 40 38 38 39
54 42 48 53 42 33 35 33 33 42 47 38 31 37 48 59 64 58 51 55 66 63 52 60 67 44 23 22 21 18 19 18 17 20 23 27 27 29 31 29 31 35 36 35 33 34 36 37 37 38 37 39 42 43 44 46 47 49 50 51 53 55 57 59 60 62 61 60 58 57 56 57 57 57 57 55 55 54 52 50 48 44 40 39 39 40
64 44 44 52 49 43 41 37 34 34 36 32 32 42 49 54 62 57 49 60 72 62 50 58 61 40 24 25 23 20 21 20 20 23 24 27 29 31 32 31 32 36 36 35 34 35 36 38 39 39 39 40 43 44 45 47 48 50 52 53 54 56 58 59 61 62 62 60 59 58 57 57 57 59 58 56 56 55 52 50 48 45 40 39 40 40
62 52 49 47 49 49 44 38 33 33 38 40 41 45 49 58 63 53 53 66 67 60 56 52 49 44 35 28 25 23 23 23 23 26 27 28 30 32 32 31 32 34 35 34 34 34 36 38 40 41 41 42 43 44 45 47 49 51 53 55 56 57 59 60 61 62 62 60 59 58 58 58 58 58 58 58 57 56 53 51 48 45 41 41 41 40
59 62 58 49 52 51 44 39 35 37 40 40 44 47 47 62 70 61 61 63 54 59 61 42 37 47 40 28 28 26 24 25 26 28 29 30 31 32 31 30 31 32 34 35 35 35 37 39 42 43 43 43 44 45 45 47 49 50 52 55 58 58 59 60 62 62 61 60 59 59 59 59 58 58 58 58 58 57 55 52 49 45 42 41 41 38
59 68 63 53 55 50 46 43 37 40 44 40 46 49 44 55 69 67 63 55 50 60 56 37 37 45 38 30 30 27 26 29 29 29 30 31 32 32 31 31 31 31 35 36 35 36 38 41 43 45 45 44 45 46 46 48 50 50 52 55 57 58 59 60 62 61 61 60 58 58 58 58 58 57 57 57 57 57 56 53 52 47 42 40 39 38
55 66 63 57 60 52 47 50 47 50 53 46 46 47 42 46 55 60 61 56 57 60 51 43 48 48 38 34 32 28 28 29 29 30 31 32 33 33 33 32 32 34 37 37 37 39 40 42 44 45 46 47 47 48 48 50 50 51 52 55 57 58 59 61 62 61 59 59 58 57 57 56 56 56 56 56 55 55 55 54 54 51 46 41 38 37
50 59 53 49 59 53 44 49 51 50 51 46 43 43 43 45 47 51 53 54 59 61 54 53 59 53 39 32 30 29 29 30 31 32 33 33 33 34 34 35 36 38 38 37 39 41 42 43 45 46 48 48 47 48 49 50 50 50 53 55 57 58 58 60 62 61 58 57 57 56 55 54 54 53 53 54 53 53 53 52 52 50 47 43 40 38
52 60 55 52 61 53 39 41 43 44 49 52 52 51 49 48 47 45 45 49 54 54 54 57 57 48 34 26 28 29 30 33 34 33 35 36 36 37 38 38 40 41 40 41 42 44 44 45 46 47 49 47 46 48 48 49 51 51 53 55 56 57 59 60 62 61 60 58 57 57 55 54 53 51 50 50 49 50 49 47 47 47 45 45 44 41
58 64 62 61 67 55 37 39 46 48 50 46 42 43 42 41 44 44 42 47 47 46 52 55 45 32 25 26 32 34 34 34 34 35 38 39 39 40 40 40 41 41 42 43 44 44 44 44 45 46 47 46 46 47 47 49 51 51 52 53 54 56 59 61 62 62 61 59 58 57 56 54 52 49 48 47 46 45 44 44 46 48 47 48 47 44
63 65 64 61 66 60 45 46 53 48 41 33 25 26 28 30 38 42 41 43 44 41 42 39 30 26 28 32 35 35 35 35 35 37 39 39 42 43 40 40 42 42 42 42 42 43 42 43 43 44 44 45 45 46 47 48 49 50 50 52 53 55 58 60 61 62 61 60 59 58 56 54 51 47 47 45 43 42 43 46 50 52 53 53 51 49
64 67 65 59 63 65 56 55 56 42 28 26 24 25 28 30 34 41 44 45 42 37 34 33 32 32 32 33 35 37 38 39 39 40 40 40 42 42 42 43 43 43 43 42 42 43 43 44 45 44 44 45 45 47 47 48 49 51 51 51 53 55 58 60 61 62 62 61 59 58 57 54 50 47 46 45 42 41 44 49 53 55 57 59 58 56
64 67 69 64 64 68 63 58 52 37 27 28 29 32 36 37 37 43 47 43 36 36 41 44 42 39 40 43 44 44 45 44 42 41 41 42 43 44 46 47 44 44 45 44 44 45 44 44 44 44 44 45 46 47 48 49 52 53 53 52 53 55 57 60 62 62 62 61 60 59 57 55 51 48 47 44 43 43 46 50 53 55 59 64 64 61
61 62 67 68 64 65 68 61 50 43 39 33 32 37 40 35 34 41 47 44 41 46 54 56 54 53 53 52 51 50 50 50 49 47 46 49 51 52 52 52 50 49 48 46 46 45 44 43 43 44 45 46 47 47 48 50 52 53 54 55 55 56 58 61 62 63 63 62 61 60 59 58 54 50 48 46 44 46 48 51 53 54 60 68 68 64
59 58 62 69 66 63 69 69 61 56 47 32 31 41 41 34 34 41 50 55 56 56 57 57 58 58 58 57 57 56 58 64 66 61 57 58 58 58 58 56 54 52 49 48 47 46 45 44 44 46 47 47 48 47 48 50 52 54 57 58 58 59 60 62 63 63 63 64 64 62 61 60 57 53 50 48 47 48 50 53 55 57 63 70 69 64
66 59 58 70 77 73 73 76 71 60 47 36 37 41 40 40 45 48 55 66 68 60 55 59 60 60 62 64 62 62 70 82 82 69 61 60 60 59 59 55 53 52 50 49 49 48 47 46 47 49 49 49 49 49 50 52 54 56 59 60 61 62 63 64 64 64 65 66 66 66 65 63 59 54 51 50 50 51 52 54 57 61 67 72 70 66
76 74 70 76 84 77 74 78 70 54 48 48 47 47 46 46 50 60 74 80 69 54 52 60 63 61 63 66 65 68 76 84 80 68 58 57 57 56 55 54 53 53 52 51 50 49 49 49 51 52 51 51 51 51 53 55 56 58 61 62 63 64 65 65 64 65 66 67 69 70 70 68 62 54 51 52 52 53 55 56 58 65 72 73 69 68
68 79 78 79 80 71 70 77 67 51 53 59 57 56 54 50 57 79 92 82 60 48 49 55 57 56 59 62 64 68 69 66 64 59 54 53 55 53 51 51 51 51 51 52 51 50 50 50 50 49 49 50 52 53 55 56 58 61 63 63 64 65 65 65 66 67 69 70 72 74 73 71 66 57 53 53 54 56 59 59 61 68 74 75 72 71
53 61 65 71 73 67 64 65 59 52 53 57 57 54 54 65 83 89 77 59 50 49 49 48 48 49 52 54 56 59 58 54 52 52 51 51 52 51 50 50 50 51 51 51 50 49 49 49 48 49 50 51 53 56 56 58 60 62 64 65 65 65 65 67 70 71 72 73 75 76 77 76 72 65 59 56 56 59 62 64 68 72 75 76 76 75
45 47 53 54 53 54 53 51 58 69 62 50 51 52 50 65 77 65 49 46 48 48 46 45 44 44 46 49 50 51 51 49 48 49 48 48 47 48 49 50 51 52 51 49 49 47 48 50 50 51 53 54 56 58 58 61 63 65 67 69 68 68 71 75 78 78 78 78 79 80 82 82 80 77 73 66 61 60 65 70 75 77 78 78 79 79
44 45 53 49 40 47 57 54 57 69 58 39 41 46 41 43 46 40 41 46 44 42 44 44 42 41 43 47 48 47 47 47 46 45 45 46 47 49 51 51 51 51 50 49 49 48 49 52 53 54 56 57 58 59 61 64 67 69 71 72 72 75 81 85 86 86 85 84 84 85 87 87 87 88 86 78 69 64 68 76 80 82 83 81 82 83
44 45 53 55 48 48 56 55 50 50 43 35 37 38 34 33 35 35 39 40 39 41 41 40 41 42 42 44 45 45 45 44 44 45 47 48 49 50 51 52 50 50 49 48 48 48 49 51 53 56 57 57 58 60 63 65 69 72 75 76 77 81 85 88 90 89 88 88 88 89 91 90 89 91 91 85 76 70 73 81 86 88 87 86 87 87
43 50 53 56 58 55 51 48 46 43 40 37 37 34 33 34 35 36 38 38 39 39 37 37 41 41 40 42 44 45 46 46 47 50 49 49 51 51 50 51 52 52 53 53 51 51 52 53 52 54 57 61 64 65 65 66 70 75 78 79 80 82 84 89 92 91 89 90 91 92 93 92 91 94 94 89 81 75 77 83 88 90 90 90 90 88
50 56 56 57 65 70 64 52 45 43 41 38 37 36 35 35 36 38 39 38 37 37 37 38 39 39 41 44 45 47 49 49 52 57 56 57 60 58 53 56 61 60 59 59 59 56 54 55 54 57 65 73 74 71 70 70 72 75 78 80 81 83 85 90 93 92 91 92 93 94 94 93 94 96 95 90 85 82 83 86 89 91 92 93 92 88
67 62 63 63 62 65 62 50 40 39 39 37 37 37 35 35 37 38 38 37 37 37 37 37 39 42 44 45 46 49 52 53 57 61 61 61 62 58 54 57 61 61 58 58 57 52 50 54 60 67 75 78 76 74 74 74 74 76 79 81 82 84 88 91 93 94 94 94 94 95 94 93 95 97 96 91 88 87 89 91 92 92 92 92 90 88
64 61 63 62 59 59 53 43 40 44 44 38 36 36 34 35 37 38 37 38 38 37 38 40 41 43 45 46 47 49 52 54 54 53 53 54 54 53 52 52 54 56 56 55 53 53 55 59 64 70 76 76 75 74 75 75 75 77 81 82 83 85 90 92 94 95 95 94 94 94 94 94 95 97 96 94 92 90 90 90 90 90 91 91 88 86
58 62 58 59 69 69 55 42 44 52 52 43 36 35 34 34 37 39 39 40 40 41 44 45 44 44 44 45 46 48 51 51 49 48 51 52 50 51 52 51 52 55 56 55 56 59 62 62 63 67 73 76 76 76 76 77 79 80 82 82 83 86 89 92 94 96 95 94 93 93 94 95 97 98 97 97 97 96 93 92 91 90 91 91 91 91
54 55 49 54 66 62 47 40 42 46 47 41 36 36 36 36 39 42 42 43 44 44 45 46 47 48 47 45 46 49 51 50 49 50 53 53 51 51 52 52 54 57 59 60 62 65 65 63 63 68 73 76 77 77 79 82 83 82 82 82 82 85 88 91 95 97 95 94 94 94 95 97 98 98 98 99 100 98 95 96 98 98 96 95 95 98
Wind_Speed
1 1 3 2 3 4 4 4 3 4 4 5 5 5 7 6 7 9 3 2 1 0 7 8 10 16 18 17 16 13 10 11 13 12 10 9 9 8 8 8 8 8 7 8 10 11 13 13 15 17 18 18 19 20 22 24 25 26 25 25 27 27 26 26 26 26 25 24 22 21 20 20 20 20 21 21 21 21 21 20 20 21 22 20 16 15
1 1 3 2 2 3 3 2 3 4 4 5 5 5 6 6 7 6 1 2 2 1 6 9 11 16 17 18 18 14 11 11 12 10 10 10 8 7 7 9 9 7 6 6 7 11 14 14 14 16 16 17 19 21 23 25 26 26 26 26 26 26 27 29 28 28 27 26 25 22 22 21 20 20 21 21 21 21 21 21 21 22 21 19 17 16
1 1 1 2 2 2 2 2 3 4 4 4 4 4 6 5 5 4 2 2 2 1 7 10 10 14 16 19 19 15 10 9 8 6 6 6 6 5 4 6 6 5 6 6 7 9 13 14 15 16 16 17 19 20 22 24 25 26 27 28 27 27 28 29 29 28 28 26 23 20 19 19 18 18 18 18 18 18 19 21 22 22 21 18 17 17
2 1 1 2 3 3 3 3 3 5 4 4 5 5 5 4 5 3 0 2 3 4 9 11 9 11 14 14 13 10 6 2 2 3 4 4 5 5 6 7 6 5 4 1 2 3 9 12 13 15 17 18 18 19 21 24 25 27 29 30 29 28 28 29 29 28 26 23 21 19 17 17 17 15 15 15 15 16 17 19 20 21 20 18 18 17
1 2 2 1 3 3 3 4 4 3 4 4 3 2 4 5 5 6 6 8 8 6 6 7 8 7 5 7 8 4 2 2 2 3 5 5 2 3 5 7 7 6 7 6 6 6 3 7 12 15 16 16 17 20 22 25 27 28 30 30 30 29 28 28 28 27 25 21 21 21 19 17 16 15 15 15 16 17 18 20 20 20 20 19 19 18
1 2 1 2 3 2 3 5 2 2 4 5 1 1 2 4 6 8 9 9 7 4 1 2 6 5 2 7 8 3 5 3 2 3 6 4 3 3 5 6 7 7 7 8 8 8 8 5 4 12 14 14 17 21 24 25 26 28 28 29 29 29 29 28 28 27 26 25 24 24 22 20 18 16 17 19 19 19 20 22 21 20 20 20 20 18
1 2 2 2 3 3 4 4 1 3 3 5 2 2 2 4 7 9 7 5 3 5 3 1 2 5 5 7 5 4 7 7 7 7 8 8 8 7 8 9 10 10 8 8 8 8 8 10 9 6 11 16 19 22 23 23 24 26 26 27 28 29 29 28 27 28 28 28 26 25 24 23 21 19 19 18 17 16 18 20 19 19 20 20 20 18
1 2 3 2 2 4 4 2 2 3 2 3 2 1 5 7 9 9 5 3 4 6 8 5 5 3 6 6 4 4 6 7 8 9 9 9 10 10 10 10 9 8 7 7 7 7 7 8 10 11 10 13 18 21 20 20 22 24 25 25 26 28 29 28 27 28 30 29 28 26 24 22 21 20 16 14 13 13 15 16 16 17 17 18 18 18
1 1 1 1 2 3 2 1 3 3 1 2 2 3 7 9 9 6 3 4 4 5 7 2 4 1 5 5 4 4 6 8 9 9 10 9 9 10 9 9 9 8 6 6 6 7 7 9 12 15 16 16 17 17 17 19 21 22 23 24 25 26 27 28 27 28 30 30 28 26 25 23 21 19 16 14 13 13 15 16 16 16 16 17 18 17
1 2 2 1 1 2 3 1 0 1 3 3 5 7 9 9 7 3 2 4 4 3 4 3 4 0 4 5 5 5 6 7 7 7 8 8 8 7 7 7 7 7 6 6 7 6 8 12 15 17 18 18 18 17 17 18 19 20 21 22 24 26 26 27 27 28 30 30 28 26 26 24 22 20 17 15 15 15 15 16 17 17 17 17 17 17
2 2 1 1 2 2 3 4 3 3 3 6 7 7 7 6 2 3 2 2 2 2 3 6 5 3 4 5 4 5 3 2 5 7 6 8 8 6 6 6 6 7 6 6 7 7 11 16 18 18 19 19 19 17 16 17 18 19 20 21 24 25 26 26 26 28 29 30 29 28 27 26 23 21 19 18 17 17 17 18 18 18 18 17 17 17
2 1 1 1 2 1 3 4 0 1 1 3 4 4 6 5 2 2 0 1 2 3 3 5 5 3 3 4 5 6 4 4 7 6 5 5 5 5 6 6 6 6 6 7 7 8 11 14 14 14 17 19 19 16 15 17 18 19 20 21 23 24 25 26 26 28 29 29 30 29 27 26 25 23 22 21 20 19 20 20 19 18 18 17 17 17
2 1 1 1 1 1 2 4 2 1 1 2 4 4 5 5 3 3 2 2 3 2 3 3 5 3 4 6 7 4 6 6 5 4 2 1 2 4 6 5 6 6 6 7 8 9 10 10 10 11 14 18 19 17 15 15 16 17 19 20 22 24 25 26 27 28 29 29 30 29 28 26 26 24 24 23 22 21 21 20 20 19 18 18 18 18
3 2 1 1 1 1 3 4 3 2 3 5 5 4 4 3 4 5 4 4 4 4 5 3 3 4 5 6 3 4 6 4 6 6 4 1 3 6 7 6 6 6 7 8 9 9 10 9 10 11 14 18 19 17 15 14 14 16 18 20 22 25 25 25 27 28 29 29 29 29 29 27 26 26 25 24 23 22 21 21 21 21 20 19 19 18
3 3 2 2 1 2 2 2 0 3 4 4 2 2 2 2 2 3 3 4 5 7 8 3 2 3 5 6 2 7 6 5 6 4 2 5 6 6 6 6 7 8 8 8 10 11 10 10 13 14 16 20 21 18 16 17 17 16 18 21 23 25 25 25 27 28 29 29 29 28 29 28 27 26 26 25 24 22 22 22 21 21 21 20 20 18
3 2 2 2 1 1 2 1 1 2 2 3 1 2 1 2 3 3 4 5 5 6 6 2 1 5 5 8 4 3 4 4 2 4 8 8 7 6 6 7 7 8 8 9 10 11 11 12 17 18 18 21 23 21 18 19 20 20 21 23 24 25 25 24 26 28 29 28 28 28 28 28 27 26 26 25 24 23 22 22 22 21 21 21 20 19
2 4 7 4 3 3 2 1 1 2 1 2 2 2 2 4 6 1 5 6 4 4 4 3 4 7 5 7 5 6 12 10 7 7 7 5 7 7 6 7 8 8 9 10 10 9 10 13 18 19 19 22 25 24 22 20 20 20 22 24 25 25 24 24 25 27 28 27 28 28 28 29 28 27 27 26 25 24 22 22 22 22 21 21 21 19
1 6 8 4 2 2 1 1 2 1 1 1 2 3 4 1 4 1 2 4 3 4 4 4 8 9 5 4 5 9 12 10 8 8 6 5 7 7 7 9 10 10 9 9 9 8 9 11 16 19 21 23 26 27 27 24 21 20 20 23 24 24 23 23 24 25 28 28 28 29 29 29 29 29 28 27 25 24 23 22 22 22 22 22 21 21
2 4 4 1 1 1 0 2 2 3 2 1 2 4 2 1 1 2 2 2 3 4 4 6 9 9 5 4 4 9 11 10 10 10 7 7 7 7 9 10 11 11 9 8 8 7 7 9 14 19 21 24 25 27 29 28 24 21 20 22 22 23 23 22 22 24 27 28 28 29 29 29 30 29 29 27 25 24 24 24 24 23 23 23 22 22
2 2 2 2 3 2 1 1 2 3 3 1 2 3 1 1 3 3 1 1 2 3 4 6 8 8 6 4 5 11 12 8 10 10 7 7 7 8 9 10 10 10 7 6 7 7 6 8 13 18 20 23 24 25 28 29 27 25 24 22 22 22 23 21 20 22 25 27 28 28 29 30 30 30 30 28 27 26 26 25 25 24 24 23 22 22
2 1 4 5 7 6 1 0 1 2 3 1 2 1 1 1 1 2 1 1 1 2 3 5 7 9 8 5 7 12 11 8 9 8 6 5 7 9 9 10 10 8 7 7 7 7 7 9 14 18 20 21 24 25 26 28 28 29 27 24 21 21 21 21 20 21 24 26 28 29 30 30 30 30 30 29 28 28 27 26 26 25 24 23 23 23
3 2 4 5 6 6 3 3 3 4 3 2 2 2 1 0 1 3 4 1 1 1 2 3 6 11 10 5 6 9 7 9 10 7 5 6 8 9 9 10 9 7 7 8 7 7 7 8 13 18 19 20 22 23 25 27 27 29 29 26 22 20 20 21 20 21 24 26 28 29 30 30 30 30 30 29 29 29 28 27 26 25 24 24 25 24
1 1 3 5 5 6 5 5 5 5 2 2 3 1 1 1 2 1 3 4 3 2 2 2 5 10 8 3 5 7 7 9 10 6 5 6 8 9 9 10 9 7 6 8 7 6 6 8 13 17 18 19 20 21 23 25 26 27 29 28 23 21 21 21 21 21 23 26 27 28 29 29 29 30 30 30 30 30 29 28 27 26 26 26 26 25
1 1 2 5 5 4 5 5 5 3 2 2 3 2 2 1 2 3 3 2 3 3 2 1 5 8 6 3 4 8 9 10 10 7 5 6 8 9 9 10 9 7 7 8 7 6 6 9 13 14 15 18 19 20 21 23 24 25 28 29 26 23 23 23 21 21 22 25 27 27 28 29 29 30 31 31 31 31 30 29 27 27 27 26 26 25
1 0 2 4 5 5 5 6 5 3 2 3 4 1 3 2 3 2 1 1 1 5 5 3 5 9 7 6 8 10 12 13 11 7 4 5 7 8 8 9 8 7 8 8 7 7 7 8 9 11 14 17 19 21 22 22 24 24 26 28 27 26 25 24 22 21 21 24 26 27 28 29 29 31 32 32 31 31 30 29 28 27 27 27 27 26
1 2 2 1 2 5 5 5 5 5 5 6 6 3 1 3 4 2 1 1 2 5 4 4 7 11 13 12 12 13 13 15 13 8 5 6 7 7 7 8 9 7 7 8 7 7 7 7 8 11 15 18 20 22 23 23 24 24 24 26 27 26 25 25 23 20 21 23 25 26 28 29 31 32 32 31 31 30 30 29 29 28 28 28 27 26
1 3 3 5 6 5 5 8 8 7 7 10 13 12 6 4 7 4 2 3 5 3 5 8 10 11 15 15 14 13 15 15 12 7 7 8 9 8 8 9 11 9 7 7 7 7 9 9 9 11 15 19 21 22 23 24 24 25 25 26 26 26 25 25 23 20 21 23 25 26 27 29 30 30 30 31 31 30 29 29 29 28 28 28 27 27
1 4 4 6 8 9 8 12 13 10 9 13 15 16 12 5 7 7 6 8 5 1 6 12 10 10 14 16 15 16 16 14 10 7 8 9 10 10 9 11 14 12 8 6 7 9 11 11 11 12 15 20 23 24 25 25 25 25 26 27 26 25 26 26 23 20 20 22 24 27 28 29 29 29 30 30 30 30 29 29 28 28 28 27 27 27
1 4 3 2 7 12 10 13 16 11 10 13 14 15 15 9 7 10 12 13 7 4 10 15 13 14 16 16 17 17 15 11 8 8 9 10 11 11 12 15 17 13 8 8 10 11 12 12 12 12 15 20 24 25 27 27 26 27 28 28 26 26 27 27 23 20 20 21 24 26 28 28 28 29 29 29 29 29 29 29 29 28 27 27 27 27
1 2 2 1 7 12 11 13 14 10 9 14 16 14 13 13 11 12 14 14 11 12 16 17 16 18 18 16 17 16 11 7 7 9 10 10 11 12 16 19 16 11 9 11 12 12 12 12 13 13 16 20 23 25 26 26 27 28 29 29 27 26 28 28 24 21 20 21 24 25 27 27 27 28 29 29 30 29 29 28 28 27 27 27 26 26
2 1 4 2 7 12 10 8 8 8 10 15 18 16 12 13 12 11 11 10 9 12 16 15 14 16 14 13 14 12 7 7 9 11 11 10 12 16 19 17 13 12 13 14 14 13 13 14 14 14 15 19 24 26 27 27 29 30 29 28 26 26 27 27 25 23 21 22 23 24 25 26 26 27 28 29 30 29 28 27 26 27 28 27 26 26
2 2 5 5 6 10 7 6 10 11 12 14 15 13 11 10 9 8 8 7 7 9 12 11 10 11 12 12 12 9 8 10 13 13 11 11 14 17 16 15 14 14 15 15 14 15 15 16 16 15 17 22 27 28 29 30 31 30 29 28 27 27 26 25 25 24 23 23 23 23 24 25 26 27 28 29 29 28 27 26 26 27 28 28 28 26
1 1 4 4 4 8 9 11 14 13 10 8 7 7 8 9 9 8 8 8 8 7 6 8 10 13 15 13 11 10 12 14 14 12 12 13 15 15 15 15 15 15 15 15 15 16 16 16 17 19 23 26 29 31 33 34 31 30 31 31 29 28 26 25 24 24 25 25 24 23 24 25 26 27 28 28 28 27 26 26 26 27 28 28 27 26
2 1 2 2 3 8 12 13 12 10 5 4 7 11 12 10 9 9 10 11 9 6 7 11 14 16 15 12 11 12 13 14 14 13 13 13 12 12 14 15 14 15 16 16 17 17 16 17 21 26 30 32 34 35 37 35 33 33 34 32 30 29 27 26 25 24 25 26 25 25 24 24 25 27 27 27 27 26 27 28 28 27 27 26 26 25
1 1 3 3 2 5 9 9 8 8 6 8 14 16 10 6 6 8 11 11 10 11 14 15 15 15 14 13 14 15 14 13 14 12 12 14 13 14 17 18 19 20 20 19 20 20 20 22 25 29 33 36 37 37 36 34 34 35 35 33 31 30 28 26 25 25 25 26 26 26 25 24 25 26 26 26 26 26 27 28 29 28 26 26 26 25
1 1 2 2 3 4 5 4 5 9 12 15 16 12 5 5 5 8 11 11 10 14 17 17 17 18 18 18 17 17 17 15 12 8 13 20 21 21 21 21 22 21 20 20 20 20 23 28 29 30 33 36 38 37 35 35 36 36 36 36 34 32 30 27 25 25 25 26 26 26 25 24 25 25 25 25 26 27 27 27 28 28 27 25 25 25
3 1 1 2 3 3 3 5 7 10 13 11 8 4 3 4 6 7 9 8 11 17 18 18 19 20 20 19 19 19 18 16 11 8 16 23 23 22 21 21 21 21 21 23 26 27 30 32 32 33 35 36 38 38 36 36 37 35 34 35 34 33 30 27 25 25 26 26 27 27 26 24 24 25 25 24 26 27 28 27 27 27 27 25 25 25
3 3 0 1 2 2 4 6 6 8 9 7 5 3 3 6 7 5 5 3 12 18 18 18 19 19 18 19 20 20 17 13 9 7 13 19 19 19 20 22 24 26 26 27 30 31 33 34 33 34 35 35 36 39 38 38 38 35 32 32 32 31 29 26 26 27 26 26 27 27 27 25 24 25 26 25 27 29 28 28 27 27 27 27 27 26
4 3 1 1 3 3 3 4 5 6 6 8 12 10 10 11 8 4 3 3 12 20 20 19 20 20 18 18 19 17 13 11 9 7 12 17 18 17 18 20 24 29 30 31 32 32 33 35 35 34 34 32 34 38 40 40 37 33 31 32 32 30 27 26 27 28 28 28 27 27 27 26 24 25 26 26 28 29 29 28 28 28 27 27 27 26
2 1 1 3 5 4 4 5 5 5 3 12 17 16 16 14 7 5 6 6 13 20 19 16 18 18 15 15 15 12 10 11 11 11 15 19 19 19 20 21 22 26 29 32 34 35 36 36 34 32 31 31 34 37 39 38 35 32 31 32 32 29 27 28 31 32 31 29 27 26 27 26 25 26 26 27 28 29 29 29 28 27 26 26 26 24
2 2 4 4 4 6 6 5 5 4 4 14 15 14 17 13 5 6 7 8 13 18 15 14 16 16 15 15 13 9 8 11 14 16 19 20 20 21 24 26 28 30 31 33 35 37 35 33 32 32 32 34 36 36 36 34 31 30 31 31 31 30 30 33 34 33 32 30 27 26 26 26 26 26 27 28 28 27 28 28 28 28 27 26 26 24
2 2 3 3 4 5 4 4 6 3 7 16 15 14 18 13 5 5 8 10 13 15 14 15 17 16 16 16 14 12 13 17 19 21 21 21 21 20 22 26 28 29 32 34 35 36 34 32 32 33 34 35 36 35 36 34 30 30 30 29 31 34 35 35 34 33 32 30 28 26 26 26 27 27 27 27 26 25 26 27 28 28 27 26 26 25
2 2 4 3 3 4 4 5 6 3 7 17 16 13 14 10 6 8 10 11 13 14 14 15 15 16 17 17 17 18 20 21 22 22 21 21 21 20 22 24 25 26 29 32 33 35 35 31 31 32 33 35 36 36 36 33 30 30 29 29 34 38 37 35 34 33 32 29 27 27 26 26 28 27 26 25 25 25 25 26 27 27 27 27 26 24
1 0 3 4 2 4 5 5 4 1 5 12 12 9 10 10 9 10 11 11 12 13 12 13 14 17 18 19 19 21 21 21 21 21 21 21 21 20 21 23 25 27 30 31 32 35 35 31 29 31 33 35 36 37 35 33 30 29 29 32 37 38 36 34 34 33 31 28 27 27 26 27 28 27 24 24 24 24 24 25 26 26 26 26 25 23
1 3 4 4 3 5 6 3 3 3 7 11 9 7 11 13 12 12 13 13 13 12 12 13 16 19 20 20 21 20 19 20 21 21 21 21 21 20 21 23 26 29 30 32 34 35 34 32 32 33 33 35 36 36 36 35 31 28 30 34 37 36 35 33 32 32 32 30 29 27 26 27 28 26 23 23 23 24 25 26 25 24 25 25 24 22
4 7 6 4 5 7 6 4 7 11 15 16 13 12 15 15 13 14 14 14 14 14 14 15 17 20 20 20 20 19 19 21 22 22 22 21 20 21 22 24 28 31 32 32 33 35 36 35 34 33 32 33 36 37 36 36 33 30 32 35 35 35 35 34 32 32 32 31 30 28 26 27 27 24 21 21 23 25 26 27 26 25 24 24 23 22
6 9 7 5 8 8 6 8 14 17 18 16 14 15 16 16 15 14 14 14 15 16 17 17 19 20 20 20 20 20 22 23 23 21 21 20 20 21 21 21 25 31 33 32 35 38 38 33 31 31 30 31 34 36 36 36 36 35 34 35 35 35 34 34 32 31 31 31 30 28 27 27 25 21 18 18 21 23 24 25 26 25 23 23 23 21
5 7 6 7 9 8 8 12 16 17 15 14 13 14 15 16 18 18 16 16 18 19 20 21 21 19 18 19 21 22 22 22 22 22 20 18 19 20 19 20 25 30 33 35 37 39 36 31 30 31 30 29 32 35 35 35 37 37 35 34 36 35 33 33 32 30 30 30 29 27 27 26 23 19 16 17 20 22 23 24 25 25 26 27 28 25
5 6 6 8 8 7 9 14 17 17 16 16 17 18 17 17 19 20 19 19 20 21 21 22 23 21 20 21 21 21 22 21 20 21 22 20 19 19 21 25 30 32 34 36 36 36 35 33 32 31 29 31 34 35 35 35 37 37 35 34 35 34 32 31 31 30 29 29 27 26 26 24 21 17 15 16 19 22 23 25 28 29 28 30 32 31
5 5 6 7 7 7 11 15 16 15 14 14 17 20 20 19 19 19 19 19 20 20 20 20 23 24 26 27 24 21 20 20 20 22 22 20 20 22 25 29 31 32 35 38 36 35 36 35 33 31 30 31 34 34 34 35 37 37 36 35 35 33 31 30 29 27 27 26 24 24 24 22 18 15 14 15 17 18 19 21 25 28 28 28 29 28
4 5 7 8 7 9 14 16 14 12 13 14 18 20 19 17 17 18 20 20 20 20 20 20 22 24 24 26 29 25 20 19 22 24 21 20 25 29 31 32 31 31 35 37 34 32 34 34 33 32 30 31 33 33 33 35 36 36 36 36 36 33 31 29 26 23 23 24 23 24 24 21 16 12 13 14 15 16 16 15 17 21 24 24 23 22
Wind_Direction
1 358 46 39 359 357 12 23 339 311 299 292 304 294 280 281 278 285 290 150 109 278 259 261 268 275 283 286 283 282 275 261 259 260 262 258 244 232 233 244 236 226 224 208 196 181 175 182 188 193 198 199 202 205 206 208 210 211 209 212 213 211 209 206 205 205 203 202 202 202 204 208 212 215 219 222 223 223 224 226 225 225 229 235 239 236
30 31 44 39 9 358 347 337 305 292 285 287 290 284 283 274 273 298 5 173 129 100 271 277 280 280 286 289 288 288 282 268 263 261 264 268 264 241 227 243 241 227 219 187 157 154 166 179 185 192 197 199 203 206 208 210 212 213 211 213 215 211 209 209 209 208 207 208 207 206 207 208 210 214 216 217 220 223 224 223 223 225 229 236 239 236
28 95 60 10 3 325 269 247 261 275 275 279 273 269 281 284 297 323 92 152 127 127 282 289 290 288 287 285 285 282 269 259 264 268 278 293 299 287 268 270 265 246 231 189 154 161 173 181 184 191 200 205 210 211 212 215 215 214 214 215 216 214 212 213 213 212 211 212 211 210 208 205 207 211 215 215 217 221 222 219 219 225 231 236 236 235
358 107 65 4 327 301 278 244 260 283 272 255 254 258 276 337 357 316 302 335 284 246 275 294 298 286 282 282 282 278 260 246 325 339 333 328 321 326 334 324 326 331 306 262 140 152 163 173 183 193 203 208 212 214 216 217 216 216 217 217 216 216 216 215 214 213 213 211 208 204 200 199 200 202 206 211 215 218 219 218 219 226 232 233 230 232
35 69 37 319 259 284 322 296 291 315 307 280 262 263 291 341 339 284 299 314 294 268 269 302 308 279 277 314 309 313 36 66 48 356 318 297 288 353 339 313 321 344 346 353 351 356 77 164 192 204 211 213 213 218 221 221 220 220 221 220 218 218 218 218 215 212 209 203 198 196 195 197 199 200 203 208 214 218 219 222 223 226 230 230 228 230
126 88 355 274 255 285 319 299 330 41 320 307 303 103 298 311 298 285 307 323 316 303 209 43 331 288 4 345 314 346 31 30 51 8 338 347 76 60 2 340 354 9 5 5 0 355 6 2 243 214 213 217 221 230 234 231 228 225 225 224 221 220 219 218 216 211 205 199 195 193 193 196 200 204 211 216 219 221 223 225 225 225 227 226 226 229
153 130 217 272 293 304 287 277 32 74 339 305 233 205 285 290 287 289 312 334 312 296 276 158 272 278 327 330 311 23 35 38 34 7 356 24 58 54 36 31 28 26 17 9 7 4 0 354 339 267 226 224 233 245 247 240 235 231 229 227 224 222 220 218 216 211 205 201 200 199 200 201 203 206 214 222 225 224 222 221 219 219 220 223 226 231
198 166 206 254 288 292 288 278 7 46 342 289 244 311 318 295 285 292 312 291 266 298 294 245 190 250 304 303 314 17 51 51 28 7 5 25 48 50 45 42 33 21 13 2 357 1 356 341 333 318 286 259 254 258 254 245 241 237 234 231 227 225 222 218 215 211 207 205 204 204 205 206 206 207 208 211 212 210 209 208 210 212 215 221 227 231
312 139 196 300 308 295 322 41 22 13 286 281 332 317 294 278 276 290 295 270 277 310 305 257 146 216 282 290 316 357 45 32 16 16 13 19 47 58 52 40 26 12 1 355 351 352 344 327 321 318 311 299 289 278 263 253 249 245 240 236 231 227 224 219 215 212 210 208 208 206 205 205 206 206 204 203 204 205 205 207 212 217 220 223 226 230
17 36 25 3 335 328 356 358 163 228 259 308 320 289 274 266 257 243 248 278 299 290 305 8 74 327 291 301 329 12 24 4 5 20 16 16 35 53 52 31 13 2 351 347 351 344 324 317 318 319 315 308 301 292 279 267 257 250 245 238 234 231 227 222 217 214 211 210 209 208 206 205 204 205 205 205 207 208 209 213 217 220 222 222 224 227
102 45 3 25 358 334 323 289 219 205 275 327 318 287 286 281 205 150 214 261 340 310 328 1 15 359 310 298 338 7 348 348 26 25 19 21 22 23 17 6 354 347 343 344 345 332 317 314 316 319 317 311 305 297 285 275 264 255 249 242 238 236 231 225 220 216 212 210 210 210 209 207 204 202 200 201 203 206 211 215 219 220 221 222 224 225
102 57 45 43 349 314 279 283 263 153 252 323 306 297 319 321 79 90 225 115 17 325 320 340 343 322 274 283 317 340 353 64 59 43 29 20 18 4 345 343 340 330 331 344 342 329 321 316 313 316 319 317 314 305 291 281 272 261 255 248 243 240 235 228 222 218 214 211 212 212 210 208 205 202 199 199 202 205 209 214 218 219 218 220 222 221
336 319 109 114 348 9 305 305 4 90 175 338 318 335 349 341 7 356 347 10 338 296 245 292 344 312 246 272 296 347 45 72 93 112 106 354 336 351 343 333 327 323 335 345 339 328 324 318 309 314 326 327 320 314 307 296 282 271 264 257 249 246 239 231 224 219 215 214 214 213 212 210 207 204 203 204 204 207 211 214 216 215 214 216 218 220
332 310 41 74 342 357 340 343 3 325 329 345 342 3 358 353 358 338 334 329 310 294 267 261 0 312 262 283 301 97 101 130 153 155 159 225 336 346 336 327 332 344 350 341 332 326 322 321 318 321 334 334 324 321 322 315 300 286 276 268 259 254 246 235 226 221 217 216 216 215 214 211 208 207 207 207 209 210 212 215 216 216 215 216 218 220
356 326 337 31 349 311 6 40 51 287 306 309 318 15 351 34 37 312 320 323 305 307 301 298 36 285 275 311 304 141 140 166 169 152 61 16 6 354 337 343 356 353 344 335 330 324 319 326 331 333 339 337 329 328 334 331 321 308 293 282 270 263 255 241 230 223 218 217 217 216 215 213 210 209 209 210 211 212 212 215 216 216 217 217 218 220
8 298 296 34 43 7 41 115 236 309 307 281 306 46 0 127 132 249 267 272 273 292 298 291 259 260 279 311 296 135 46 31 77 34 25 11 0 1 356 2 357 340 334 334 330 326 330 340 339 337 339 338 333 331 337 338 331 323 311 297 282 273 266 251 236 227 221 219 217 216 215 214 212 210 210 210 211 212 214 215 215 216 217 218 219 220
11 289 305 344 36 55 71 184 320 8 336 293 348 0 270 170 145 209 278 273 274 276 282 297 293 292 314 324 327 3 359 359 8 8 15 9 359 4 6 360 344 332 334 333 330 333 343 344 336 333 338 342 338 332 331 331 327 325 322 310 294 281 273 260 244 231 225 220 217 216 215 214 212 211 211 211 210 211 213 214 215 216 216 218 220 220
19 288 301 329 23 14 23 36 9 347 302 334 337 302 294 173 129 131 275 289 311 289 291 315 298 298 319 318 335 355 346 342 346 343 351 13 15 10 358 348 337 332 332 331 334 340 344 340 335 339 345 346 342 336 329 322 317 321 327 322 305 288 279 268 252 237 227 222 218 217 216 215 214 213 214 213 212 210 210 211 213 215 216 218 220 221
4 296 297 25 27 297 139 57 0 295 257 169 292 297 336 50 301 292 286 296 311 290 291 307 298 296 284 260 324 343 328 329 338 338 354 18 19 4 347 339 334 332 331 334 339 338 340 344 343 345 345 342 341 338 334 327 318 316 325 328 316 298 287 278 262 243 230 223 221 219 218 217 216 215 215 214 212 210 209 211 213 215 217 218 220 221
356 320 289 329 347 328 164 62 3 307 293 338 334 324 39 142 236 273 321 279 270 277 288 304 302 293 267 258 328 323 312 331 345 341 2 19 5 351 343 338 332 329 332 338 337 333 337 342 342 342 340 339 339 338 337 335 329 322 321 325 322 309 296 285 268 248 233 225 223 221 220 219 217 217 216 214 212 211 211 212 213 215 218 218 218 220
329 286 281 307 336 343 324 225 328 280 280 327 353 304 298 322 280 297 299 177 197 276 288 304 296 280 275 295 317 303 305 339 348 343 1 6 350 345 343 336 328 326 336 337 331 328 331 333 336 337 337 339 339 337 337 336 333 328 322 318 318 313 302 288 272 253 238 229 224 223 221 219 217 217 216 215 214 213 213 213 214 216 217 216 216 216
343 299 290 306 324 325 284 220 243 248 219 204 245 251 254 45 36 333 307 270 114 222 249 276 281 279 282 288 288 291 316 340 339 347 357 346 342 340 337 332 328 332 336 326 318 322 328 329 332 333 334 337 338 337 337 336 334 332 327 320 314 312 305 294 279 261 246 235 228 225 224 221 218 217 215 214 214 214 214 213 214 216 215 214 214 215
355 265 277 280 275 289 275 239 256 279 266 242 247 217 107 111 143 211 274 291 305 276 233 209 249 274 282 259 274 305 333 330 328 344 348 337 335 331 329 330 328 328 321 309 305 315 323 325 328 331 332 335 336 335 335 335 334 333 331 326 316 310 309 302 288 272 254 239 231 228 226 223 220 218 216 215 214 215 214 214 215 215 213 213 213 214
338 219 286 289 271 282 290 271 275 305 12 327 272 206 141 137 153 186 221 284 308 275 235 229 253 271 294 320 309 318 325 318 319 332 340 333 326 323 324 324 322 320 312 302 299 310 320 325 330 332 333 333 332 330 331 332 333 333 334 331 322 313 312 309 297 280 260 244 234 230 227 224 221 219 218 217 216 216 215 214 214 213 212 212 211 212
347 318 337 323 314 321 327 324 318 324 0 315 287 164 125 116 80 63 258 66 316 235 210 212 259 270 292 317 314 313 316 314 312 315 330 329 318 314 318 318 316 311 304 298 303 318 328 330 332 332 332 332 330 329 329 330 331 333 334 334 330 320 316 314 304 286 265 249 238 231 229 226 223 221 220 219 218 218 216 215 213 211 211 210 209 210
292 284 309 313 309 313 314 316 311 313 322 306 292 312 116 161 149 159 252 220 240 246 224 218 252 272 288 299 302 306 311 310 308 312 324 318 309 308 317 322 319 310 299 299 310 327 335 335 334 333 332 332 330 329 329 328 328 329 331 334 333 327 320 317 310 292 271 255 243 236 233 229 227 225 223 221 221 220 218 216 213 211 210 210 209 209
276 276 246 223 236 254 263 274 286 303 305 290 289 295 286 198 179 182 192 210 228 275 283 254 250 268 286 292 299 306 308 304 304 314 319 315 314 315 320 325 321 310 298 304 323 339 339 336 334 332 330 330 329 328 328 327 326 328 329 330 333 332 326 320 313 298 277 261 249 243 240 236 233 230 226 224 223 222 220 217 215 212 210 210 208 208
334 282 248 224 240 251 258 273 285 294 281 274 282 287 283 239 174 177 208 226 228 335 284 265 263 275 284 290 298 302 301 300 303 315 318 318 318 318 323 327 321 310 303 320 345 348 341 335 332 330 329 330 330 329 328 327 325 327 329 328 329 334 332 325 315 301 284 266 254 250 248 245 241 236 232 228 226 223 220 217 216 214 212 210 208 208
41 274 253 180 251 262 264 270 276 279 272 268 267 271 277 267 198 192 225 238 224 214 251 267 284 286 283 288 294 294 295 301 309 315 317 317 319 325 330 324 316 312 321 347 355 347 339 334 331 331 330 329 329 328 328 327 325 326 327 326 325 330 334 331 318 303 289 272 260 256 255 252 247 241 236 232 228 224 220 218 216 213 211 210 209 209
136 257 277 225 267 278 273 260 261 262 268 275 273 268 271 269 243 225 237 241 227 231 249 265 278 278 278 282 284 284 289 304 314 317 318 323 330 333 326 317 316 328 350 357 351 342 337 334 331 330 329 327 327 326 325 324 323 322 321 320 320 324 330 331 320 305 292 279 270 266 262 257 250 243 237 233 230 226 223 219 215 212 210 209 209 209
152 289 329 320 293 295 284 261 264 267 272 282 285 282 278 276 270 255 250 244 230 243 257 263 268 272 275 278 279 282 302 325 322 320 324 333 338 331 324 325 338 353 355 351 344 338 336 336 334 332 329 326 324 323 322 320 319 318 315 313 314 317 323 327 321 308 295 286 282 276 268 260 253 245 238 233 230 227 224 220 215 211 209 208 208 208
170 292 331 346 311 295 298 320 316 305 295 288 284 281 278 276 274 265 259 243 220 240 266 274 275 279 284 287 290 303 333 332 322 325 334 341 341 340 343 351 357 355 350 346 342 340 339 338 335 331 327 326 324 323 321 320 318 316 313 309 309 312 315 319 319 310 298 292 288 281 271 262 255 246 239 234 230 227 223 218 214 211 209 206 205 205
145 315 327 346 308 288 307 328 321 315 313 297 285 292 287 274 268 272 277 266 239 230 259 280 282 287 296 305 314 328 336 329 327 337 346 347 351 357 359 355 351 348 345 342 340 339 338 336 333 329 327 326 325 323 321 319 317 315 313 309 307 309 310 310 312 309 301 295 288 281 273 264 254 246 240 235 231 227 221 216 212 211 208 206 204 204
123 139 268 281 274 287 308 323 322 317 304 283 308 314 302 286 282 286 288 285 275 264 273 284 291 299 309 321 330 330 329 332 338 345 353 0 4 359 351 348 349 347 344 343 342 339 338 335 331 329 328 326 325 323 321 320 318 317 315 311 306 305 305 303 304 305 302 296 290 283 275 264 253 245 240 236 231 225 220 215 213 211 208 207 205 203
165 206 250 251 237 281 306 325 327 310 295 301 311 312 310 309 304 298 294 290 294 305 308 308 310 317 325 334 340 338 338 346 346 344 0 13 7 356 353 352 350 347 344 343 341 337 334 331 328 327 325 322 320 319 318 318 319 317 316 313 309 306 303 298 297 300 300 297 292 286 278 266 254 245 241 237 230 224 220 216 212 210 208 207 205 204
221 258 277 269 253 274 304 318 299 292 297 305 306 312 349 13 341 322 308 302 322 341 342 342 344 347 349 352 356 353 348 344 337 344 17 14 3 358 357 349 343 342 339 335 332 327 323 321 320 319 318 316 315 314 314 315 316 315 314 313 312 309 305 298 295 296 299 298 294 290 283 272 258 247 240 236 229 223 220 216 212 209 207 205 205 204
194 227 330 293 247 245 284 281 280 292 300 306 306 315 19 356 324 313 298 312 8 17 7 358 357 359 359 359 360 355 346 340 335 357 17 7 354 350 345 335 329 327 321 319 317 313 312 311 311 312 312 311 310 310 311 313 313 311 310 310 310 309 306 301 296 296 298 299 296 293 288 279 264 250 242 235 228 223 220 216 213 210 206 202 202 202
216 230 71 347 266 309 313 291 296 302 298 309 319 296 287 294 295 287 260 307 19 18 9 2 359 357 357 357 357 353 347 344 339 348 0 350 338 333 328 320 316 313 311 311 310 308 308 308 309 310 309 308 308 308 310 310 309 307 306 306 307 307 305 302 299 296 296 298 299 296 292 285 270 254 243 236 230 225 221 216 213 211 207 203 202 202
267 270 42 262 264 311 306 272 287 282 280 331 341 337 332 317 308 314 277 305 7 6 0 360 355 351 354 355 351 348 345 338 329 326 331 327 320 316 312 308 307 306 305 305 305 304 304 305 306 305 304 304 304 306 308 308 308 307 305 305 306 305 304 303 302 299 296 297 300 299 296 291 277 258 247 240 236 230 223 217 213 209 206 204 204 204
262 246 176 220 245 267 250 250 276 260 309 356 353 352 347 332 331 348 309 314 3 357 349 352 349 343 347 344 340 344 342 327 315 309 311 310 305 303 303 303 302 301 302 302 301 300 301 302 303 302 302 302 301 303 305 306 307 306 304 304 304 303 303 305 304 302 299 297 299 300 299 295 281 263 252 248 245 237 226 217 211 205 202 203 203 202
257 191 192 214 257 267 250 259 274 249 7 4 356 0 356 342 349 1 322 323 350 342 336 345 340 332 336 336 333 333 319 306 302 301 304 304 302 302 302 301 300 299 298 298 297 298 300 302 302 302 301 302 302 304 305 305 305 304 303 304 303 302 304 305 304 303 301 297 297 298 297 293 283 269 259 255 251 241 227 215 208 203 200 200 200 198
295 255 216 208 251 258 240 272 279 258 19 3 353 8 13 7 7 348 323 321 329 327 331 339 332 329 332 329 323 317 307 304 303 302 304 304 302 303 303 302 301 299 297 297 297 299 301 302 302 301 300 302 304 306 307 307 306 307 307 305 302 302 303 303 302 301 300 296 296 296 295 292 285 275 266 260 252 238 223 213 206 202 199 197 196 196
281 290 279 256 268 285 280 299 295 276 357 355 355 12 17 7 342 326 321 319 321 323 330 331 328 330 328 320 317 312 307 306 305 303 304 303 301 302 301 299 298 296 297 299 299 300 301 300 298 298 299 303 306 306 308 309 308 309 309 306 305 306 305 303 302 301 298 295 294 295 294 292 287 279 271 263 250 234 220 208 201 199 197 194 193 193
239 179 300 298 332 326 295 307 341 335 345 357 8 14 355 340 334 334 329 323 322 324 327 326 324 325 320 314 312 309 305 306 306 304 305 304 301 300 298 296 296 295 296 298 298 298 299 297 296 299 301 303 305 306 308 309 308 308 307 307 310 311 308 306 306 304 301 297 295 293 292 291 288 282 273 262 246 229 214 203 197 195 194 193 192 191
23 51 328 299 337 332 299 302 17 357 348 0 8 359 344 338 335 336 331 325 325 326 326 324 320 318 314 310 309 309 308 308 307 306 305 302 300 299 297 295 296 295 296 297 298 298 300 300 301 302 301 303 306 307 308 309 307 306 306 308 312 313 310 310 310 307 304 301 297 293 292 291 288 281 271 257 239 222 209 199 193 191 191 192 192 191
42 25 347 315 338 334 319 349 7 352 349 352 349 346 346 341 336 336 332 326 324 323 321 318 314 313 313 311 311 310 309 307 306 305 304 303 303 303 301 300 301 300 299 301 303 304 305 305 304 303 303 307 310 310 309 309 307 304 305 308 312 312 312 312 310 306 304 302 298 295 292 290 287 279 267 252 234 222 212 199 191 188 189 190 191 193
19 10 351 340 344 334 329 355 357 347 341 341 338 337 337 334 330 329 326 321 320 317 315 313 311 311 311 311 310 309 307 307 307 307 307 308 308 307 305 305 307 307 307 308 310 310 308 307 307 308 309 311 311 310 309 308 306 304 306 310 313 312 312 310 307 305 303 301 299 295 291 288 285 276 259 241 228 219 210 200 193 188 187 188 191 194
348 355 354 348 340 328 320 332 337 332 327 332 335 333 332 330 326 324 321 319 316 314 313 313 312 311 311 310 309 308 307 308 309 310 310 310 310 310 310 310 309 309 309 310 310 310 310 310 311 310 309 309 309 308 306 304 304 305 309 312 313 313 312 310 307 305 303 301 299 294 289 286 283 273 252 232 221 212 203 196 192 191 193 194 194 193
332 356 356 337 327 318 318 328 333 329 327 333 334 329 326 325 321 318 317 316 314 313 313 312 311 311 310 310 310 309 310 310 311 312 314 314 314 314 313 312 312 311 310 309 309 310 312 311 309 308 308 309 310 308 305 304 305 307 311 312 314 314 313 310 308 306 304 303 300 294 290 287 282 269 247 229 220 212 206 202 199 199 202 204 202 201
1 14 358 335 327 325 326 330 332 326 322 327 326 322 319 318 315 313 313 313 313 313 312 312 313 313 312 311 311 311 311 311 312 314 315 314 313 312 312 312 313 312 311 310 310 311 309 306 305 306 308 309 310 308 305 305 306 308 311 313 314 315 313 310 309 308 306 306 304 299 295 291 283 265 241 225 216 209 209 211 210 209 209 210 209 207
21 8 352 338 322 317 322 325 324 318 313 315 315 314 314 314 313 312 313 313 313 314 316 317 317 317 315 313 313 312 311 310 312 313 312 311 311 312 312 312 312 311 310 309 308 307 305 304 306 308 309 310 310 307 305 305 306 308 312 314 314 315 314 312 310 308 308 309 308 305 301 294 282 258 234 220 211 204 202 207 214 216 216 214 209 206